Notices

What's New in latest Release from April 7th, 2021:

- Updated Glossary, including Speed of Maximum Gust, and Total Hourly Precipitation

- Updated national and regional climate services offices contacts and prices information

- Addition of station inventory lists for 1981-2010, 1971-2000, and 1961-1990 Normals.

If you haven't already, please take our survey and provide feedback about our website: https://eccc.sondage-survey.ca/f/LanguageSelection.aspx?s=442ca660-fcf1-47c0-95a9-59707d6fd709

Hourly Data Report for October 30, 2019

CARBERRY CS
MANITOBA
Current Station Operator: ECCC - MSC

49°54'20.900" N
99°21'26.800" W
383.50 m
5010547
71170
WZE

Download Data

Hourly Data (October 2019)
Hourly Data Report for October 30, 2019
TIME
LST
Temp Definition
°C
Dew Point Definition
°C
Rel Hum Definition
%
Precip. Amount Definition
mm

Wind Dir Definition
10's deg

Wind Spd Definition
km/h
Visibility Definition
km
Stn Press Definition
kPa
Hmdx Definition


Wind Chill Definition


Weather Definition


00:00 -7.8 -10.3 83 0.0 26 19   97.46   -15 LegendNANA
01:00 -8.5 -10.7 84 0.0 25 20   97.49   -16 LegendNANA
02:00 -9.0 -10.8 86 0.0 25 20   97.50   -17 LegendNANA
03:00 -9.6 -11.3 87 0.0 25 18   97.47   -17 LegendNANA
04:00 -9.4 -11.2 87 0.0 26 19   97.48   -17 LegendNANA
05:00 -9.5 -11.3 87 0.0 26 14   97.52   -16 LegendNANA
06:00 -8.0 -10.3 84 0.0 26 20   97.55   -15 LegendNANA
07:00 -8.8 -10.9 85 0.0 26 16   97.53   -16 LegendNANA
08:00 -9.5 -11.5 85 0.0 25 14   97.57   -16 LegendNANA
09:00 -8.4 -11.2 81 0.2 26 16   97.65   -15 LegendNANA
10:00 -7.3 -10.7 76 0.0 28 15   97.65   -13 LegendNANA
11:00 -5.8 -9.6 74 0.0 27 16   97.65   -12 LegendNANA
12:00 -4.0 -8.6 70 0.0 27 18   97.62   -10 LegendNANA
13:00 -4.1 -8.4 72 0.0 26 21   97.60   -11 LegendNANA
14:00 -3.6 -8.2 71 0.0 27 19   97.54   -10 LegendNANA
15:00 -3.6 -8.3 70 0.0 26 23   97.52   -10 LegendNANA
16:00 -3.5 -8.8 67 0.0 26 19   97.49   -9 LegendNANA
17:00 -4.9 -9.3 71 0.0 26 15   97.48   -10 LegendNANA
18:00 -6.1 -10.0 74 0.0 26 11   97.45   -11 LegendNANA
19:00 -6.8 -10.6 74 0.0 24 8   97.42   -11 LegendNANA
20:00 -8.7 -12.2 76 0.0 23 5   97.43   -11 LegendNANA
21:00 -8.2 -12.1 73 0.0 23 8   97.38   -12 LegendNANA
22:00 -9.7 -12.8 78 0.0 22 7   97.33   -14 LegendNANA
23:00 -9.7 -12.9 77 0.0 21 10   97.25   -15 LegendNANA

Notes on Data Quality.

Legend

  • E = Estimated
  • M = Missing
  • NA = Not Available*
  • [empty] = Indicates an unobserved value
Date modified: